Location: Rodanthe
(35.5920°N, 75.4670°W)
Time: 05:51:59
(UTC-04:00)

Daily predictions for brighter satellites

Satellite Brightness Start Highest point End
(mag) Time Altitude Azimuth Time Altitude Azimuth Time Altitude Azimuth
Atlas Centaur 2 4.0 00:01:09 10° WSW 00:05:19 32° WSW 00:05:19 32° WSW
Nadezhda 4 Rocket 4.4 00:18:32 58° WNW 00:18:32 58° WNW 00:24:24 10° N
Lacrosse 4 Rocket 3.9 00:22:28 19° NNW 00:22:28 19° NNW 00:24:17 10° N
Cosmos 1943 Rocket 2.9 00:15:46 10° NNW 00:19:48 50° NNW 00:19:48 50° NNW
Cosmos 2369 Rocket 4.2 00:40:37 10° NW 00:42:56 18° WNW 00:42:56 18° WNW
Cosmos 1656 Rocket 4.5 00:39:06 10° NNW 00:43:21 48° N 00:43:21 48° N
CZ-2C R/B 4.0 00:45:42 10° NNE 00:49:08 33° NE 00:49:08 33° NE
COSMOS 2406 4.2 00:55:40 41° NW 00:55:40 41° NW 01:00:21 10° N
NOSS 3-2 (A) 4.2 00:57:43 45° ENE 00:57:43 45° ENE 01:02:16 10° NE
Cosmos 2026 Rocket 4.4 00:59:46 57° NNW 00:59:46 57° NNW 01:04:40 10° N
Cosmos 2082 Rocket 3.6 01:29:53 30° ENE 01:29:53 30° ENE 01:33:21 10° NE
USA 215 3.6 01:24:38 10° NE 01:29:53 54° E 01:29:53 54° E
Cosmos 1833 Rocket 3.9 01:47:33 35° ENE 01:47:33 35° ENE 01:51:29 10° NE
CZ-4C R/B 2.9 01:48:51 50° NNW 01:48:51 50° NNW 01:53:38 10° NNE
Cosmos 2315 Rocket 4.4 01:43:59 10° N 01:50:07 55° ENE 01:50:07 55° ENE
NOSS 3-3 (A) 4.5 01:46:52 10° NNW 01:54:25 77° ENE 01:55:46 63° ESE
NOSS 3-3 (C) 4.5 01:46:59 10° NNW 01:54:32 76° ENE 01:55:56 62° ESE
Timation 2 Rocket 4.2 01:57:26 71° WNW 01:57:26 71° WNW 02:04:10 10° NNE
Cosmos 2344 3.4 01:58:28 77° SSW 01:59:08 89° WNW 02:07:38 10° NNE
NOSS 3-2 (C) 3.8 01:59:33 55° NW 01:59:33 55° NW 02:05:53 10° NNE
Cosmos 1818 4.1 02:01:18 10° NNW 02:05:51 55° NNE 02:05:51 55° NNE
CENTAUR R/B 3.3 02:10:43 39° E 02:10:43 39° E 02:16:16 10° NE
Cosmos 2266 Rocket 4.4 02:11:04 52° WNW 02:11:04 52° WNW 02:16:49 10° N
H-2A R/B 3.6 02:14:44 32° ESE 02:14:44 32° ESE 02:22:16 10° E
Cosmos 2369 4.3 02:21:59 10° NNW 02:26:02 46° NW 02:26:02 46° NW
CZ-2C R/B 4.3 02:29:35 32° WNW 02:29:35 32° WNW 02:33:03 10° NNW
IRAS Rocket 4.3 02:22:33 10° NNE 02:27:34 73° NE 02:27:34 73° NE
Cosmos 1656 3.9 02:22:57 10° NNW 02:28:38 63° ENE 02:28:57 62° E
CZ-2C R/B 4.4 02:26:46 10° NNW 02:30:39 22° WNW 02:30:39 22° WNW
Cosmos 1867 4.3 02:37:24 43° NW 02:37:24 43° NW 02:42:25 10° NNE
IRS-P3 4.1 02:36:08 10° NNE 02:41:12 79° NE 02:41:12 79° NE
H-2A ROCKET BODY 4.2 02:27:54 10° WSW 02:47:54 10° ESE 02:29:35 12° WSW
Aureole 1 Rocket 3.7 02:44:09 10° N 02:48:43 68° ENE 02:49:08 65° ESE
Sich 1 3.6 02:53:35 57° NNE 02:53:35 57° NNE 02:57:09 10° N
Resurs 1-4 Rocket 4.1 02:49:53 10° NE 02:53:42 20° E 02:56:04 15° SE
Cosmos 1980 Rocket 2.8 02:55:18 10° NNW 03:00:49 53° ENE 03:04:06 24° SE
SL-08 R/B 4.3 03:02:44 65° WSW 03:03:17 68° W 03:09:22 10° N
BREEZE-M DEB (TANK) 3.0 03:08:59 50° NE 03:08:59 50° NE 03:13:28 10° NE
Cosmos 1300 4.1 03:05:33 10° NNW 03:07:48 33° NNW 03:07:48 33° NNW
Cosmos 2058 4.3 03:12:14 30° NW 03:12:14 30° NW 03:14:56 10° N
Cosmos 540 Rocket 3.3 03:06:57 10° NNW 03:12:09 90° SSE 03:12:42 72° SSE
Cosmos 2082 Rocket 3.4 03:11:43 27° WNW 03:12:19 27° WNW 03:17:06 10° N
USA 215 4.3 03:08:00 10° NNE 03:13:50 36° NW 03:17:13 22° W
Cosmos 2242 Rocket 3.5 03:11:04 10° N 03:15:13 79° N 03:15:13 79° N
ERS-2 4.0 03:14:22 10° NNW 03:16:18 22° NW 03:16:18 22° NW
AQUA 4.1 03:18:00 10° N 03:22:37 52° WNW 03:22:38 52° WNW
Cosmos 1697 Rocket 2.7 03:17:39 10° NNW 03:23:12 57° WSW 03:23:25 57° WSW
Meteor 1-27 4.3 03:17:27 10° NNW 03:23:13 60° W 03:23:58 55° SW
ATLAS 2A CENTAUR R/B 4.1 03:21:16 27° S 03:24:20 33° SE 03:49:37 10° E
SEDSat Delta rocket 4.2 03:23:47 48° SSW 03:24:41 52° SSE 03:30:59 10° E
SL-16 R/B 3.5 03:18:59 10° SE 03:24:54 47° ENE 03:30:51 10° N
NPP 4.1 03:19:51 10° N 03:24:57 45° WNW 03:25:30 43° W
CZ-2D R/B 3.1 03:21:45 10° NNE 03:26:40 40° E 03:29:13 24° SSE
H-2A R/B 4.0 02:22:03 10° W 03:30:14 61° SSW 03:36:12 10° ESE
Cosmos 1833 Rocket 4.0 03:29:15 24° WNW 03:30:15 25° WNW 03:34:53 10° N
Cosmos 2360 4.4 03:26:53 10° NNW 03:32:36 69° ENE 03:38:16 10° SSE
Spot 4 Rocket 3.9 03:30:13 10° N 03:35:21 75° WNW 03:36:31 53° SW
Cosmos 1455 2.9 03:33:33 10° N 03:37:15 49° E 03:38:22 36° SE
Cosmos 968 Rocket 3.4 03:38:15 54° SW 03:39:13 67° WNW 03:44:20 10° NNE
Cosmos 1703 3.9 03:43:37 43° WNW 03:43:37 43° WNW 03:47:06 10° N
Cosmos 1538 Rocket 3.9 03:38:32 10° NNW 03:43:46 86° ENE 03:47:27 20° SSE
Cosmos 1633 Rocket 4.3 03:44:54 26° WNW 03:44:54 26° WNW 03:48:21 10° NNW
CZ-3 Stage 3 3.1 03:31:37 10° W 03:45:33 55° S 03:49:02 10° ESE
SL-08 R/B 4.3 03:46:27 30° W 03:46:27 30° W 03:50:08 10° NW
ATLAS 5 CENTAUR R/B 3.3 03:45:09 20° SSE 03:47:24 29° ESE 03:51:43 10° NE
Atlas Centaur 2 3.8 03:50:23 24° S 03:50:23 24° S 03:53:57 10° SSE
Lacrosse 5 rocket 4.5 03:46:29 10° N 03:49:36 18° NE 03:52:46 10° E
ADEOS 4.1 03:46:33 10° N 03:51:26 42° WNW 03:52:44 35° WSW
FALCON 9 R/B 2.3 03:53:26 21° E 03:53:26 21° E 03:54:23 10° E
EO 1 Del DPAF 3.1 03:52:35 49° S 03:53:36 83° W 03:57:31 10° NNW
SL-16 R/B 2.8 03:51:13 10° NNW 03:56:50 58° ENE 04:02:23 10° SE
Cosmos 332 Rocket 4.1 03:53:39 10° NNW 03:58:11 43° WSW 03:58:49 41° SW
Cosmos 1470 Rocket 4.2 03:59:12 37° W 03:59:47 38° W 04:03:56 10° N
CENTAUR R/B 3.6 03:57:54 22° W 04:00:54 33° NW 04:06:59 10° NNE
Cosmos 1726 4.2 03:58:41 10° NW 03:59:50 15° WNW 03:59:50 15° WNW
Cosmos 1777 Rocket 4.0 03:59:40 37° SW 04:01:46 69° WNW 04:07:03 10° NNE
Meteor 1-4 Rocket 2.6 03:59:27 10° NNW 04:03:09 60° W 04:03:48 50° SW
Lacrosse 5 1.9 03:59:41 10° NW 04:04:46 81° NE 04:09:49 10° SE
Cosmos 1933 Rocket 4.3 04:04:16 33° W 04:04:51 34° WNW 04:08:51 10° NNW
Cosmos 1709 Rocket 4.1 04:02:08 30° SSW 04:05:13 58° W 04:11:26 10° N
Meteor 2-10 4.2 04:01:08 10° NNW 04:06:10 52° W 04:08:39 29° SSW
UNK 3.6 04:03:54 18° S 04:07:15 86° WSW 04:11:51 10° NNW
IRS-1D 3.7 04:02:05 10° N 04:07:22 62° WNW 04:09:56 30° SW
Cosmos 1271 Rocket 2.9 04:06:48 10° NNW 04:10:27 46° W 04:11:03 42° SW
Cosmos 2322 Rocket 2.2 04:06:33 10° NNW 04:12:12 85° ENE 04:17:48 10° SSE
CRYOSAT 2 4.3 04:08:01 10° N 04:12:55 88° W 04:16:17 20° S
ARIANE 5 R/B 2.9 04:08:42 10° N 04:13:34 46° WNW 04:15:46 28° SW
Cosmos 1626 2.9 04:15:55 32° W 04:16:27 34° W 04:19:54 10° NNW
Cosmos 773 Rocket 3.8 04:12:46 10° NNW 04:17:55 83° WSW 04:23:02 10° SSE
BREEZE-M TANK 4.4 04:15:33 10° WNW 04:18:04 16° NNW 04:19:53 10° NNE
Centaur D-1AR AC-48 4.3 03:50:09 10° WSW 04:18:12 37° SSW 04:23:56 10° SE
CZ-2D R/B 3.5 04:16:10 10° NNE 04:20:22 78° ESE 04:23:12 19° S
Okean O Rocket 2.0 04:16:10 10° NNE 04:20:35 64° E 04:24:15 14° S
OAO 1 Rocket 4.4 04:18:12 17° W 04:22:21 84° S 04:27:44 10° E
Cosmos 2292 Rocket 3.6 04:23:56 29° W 04:24:03 29° W 04:26:48 10° NNW
Resurs 1-4 Rocket 2.6 04:28:40 10° N 04:33:42 44° WNW 04:37:09 19° SW
Okean-O 4.2 04:35:30 10° NNE 04:39:31 33° E 04:43:32 10° SSE
Cosmos 2221 Rocket 3.6 04:36:45 10° NNW 04:41:12 64° W 04:45:39 10° S
Okean 1-7 3.1 04:38:44 10° N 04:43:09 82° E 04:47:31 10° S
OAO 3 Rocket 3.1 04:40:13 16° W 04:43:55 80° S 04:48:40 10° E
Cosmos 1980 Rocket 3.6 04:40:41 10° WNW 04:44:17 18° W 04:45:46 16° WSW
Cosmos 2360 Rocket 3.0 04:40:04 10° NNW 04:45:37 56° ENE 04:51:07 10° SE
CZ-4B R/B 3.2 04:40:20 10° NNE 04:45:47 90° WNW 04:51:20 10° SSW
In-Cosmos 22 Rocket 4.3 04:41:35 10° S 04:46:50 73° E 04:52:10 10° NNE
Cosmos 2219 3.7 04:42:30 10° S 04:48:06 60° ESE 04:53:45 10° NNE
Cosmos 2322 4.3 04:45:18 10° NNW 04:50:59 62° ENE 04:56:38 10° SSE
Cosmos 2112 Rocket 3.9 04:46:19 10° NNW 04:51:31 78° WSW 04:56:40 10° S
GPS 2-05 Rocket1 3.1 04:50:55 18° SW 04:53:12 52° SSE 04:56:40 10° E
MOZ.5/SAFIR/RUBIN 5/SL-8 3.9 04:49:11 10° SSE 04:53:50 80° ENE 04:58:32 10° N
CZ-4B R/B 2.8 04:53:15 10° N 04:57:12 83° WNW 05:01:22 10° SSW
PAYLOAD B 4.3 04:53:24 10° N 04:58:52 67° WNW 05:04:19 10° SSW
CZ-4B DEB 4.2 04:55:19 10° N 05:00:48 75° WNW 05:06:17 10° SSW
ISS -0.2 05:01:35 10° NNW 05:03:49 17° NNE 05:06:03 10° ENE
Cosmos 1869 Rocket 4.5 05:01:09 12° SW 05:04:40 30° WNW 05:08:34 10° NNW
CZ-2D R/B 3.5 05:02:32 10° NNW 05:06:27 22° WNW 05:10:25 10° WSW
UNKNOWN OBJECT B 4.5 05:04:11 10° NNW 05:06:46 18° WNW 05:09:20 10° WSW
SL-16 R/B 3.6 05:03:44 10° SSW 05:08:40 24° W 05:13:38 10° NW
Cosmos 2298 Rocket 4.1 05:05:36 10° SSW 05:10:52 64° WNW 05:16:11 10° N
SEDSat Delta rocket 4.1 05:04:32 10° W 05:11:10 61° S 05:17:12 10° ESE
Cosmos 2154 Rocket 4.1 05:05:05 10° S 05:11:23 84° W 05:17:46 10° N
PSLV R/B 4.2 05:07:13 10° NNE 05:11:34 60° E 05:15:51 10° S
Nadezhda 3 Rocket 4.1 05:08:38 10° N 05:14:49 85° E 05:20:58 10° S
Cosmos 304 Rocket 4.2 05:10:55 10° NNW 05:15:28 42° WSW 05:20:00 10° S
COSMOS 2428 3.9 05:11:47 10° N 05:17:18 49° ENE 05:22:46 10° SE
Meteor 2-3 Rocket 4.0 05:17:07 10° SSW 05:22:43 55° W 05:28:25 10° N
Coronas F rocket 3.3 05:20:18 10° SSE 05:22:45 30° E 05:25:13 10° NNE
